Change the Weather History Date:

Saturday, June 29, 2013

  Actual Average Record
Temperature  
Mean Temperature 64 °F -  
Max Temperature 70 °F 89 °F 100 °F (2004)
Min Temperature 60 °F 64 °F 59 °F (2007)
Growing Degree Days 14 (Base 50)    
Moisture  
Dew Point 59 °F    
Average Humidity 83    
Maximum Humidity 100    
Minimum Humidity 47    
Precipitation  
Precipitation 0.04 in 0.03 in - ()
Sea Level Pressure  
Sea Level Pressure 29.97 in    
Wind  
Wind Speed 8 mph ()    
Max Wind Speed 17 mph    
Max Gust Speed -    
Visibility 6.9 miles    
Events Rain , Thunderstorm    
Averages and records for this station are not official NWS values.
T = Trace of Precipitation, MM = Missing Value Source: Averaged Metar Reports

Daily Weather History Graph

Daily Weather History Graph

Search for Another Location

Airport or City:

Trip Planner

Search our weather history database for the weather conditions in past years. The results will help you decide how hot, cold, wet, or windy it might be!

Date:

Astronomy

Jun. 29, 2013 Rise Set
Actual Time 5:25 AM CEST 8:35 PM CEST
Civil Twilight 4:52 AM CEST 9:09 PM CEST
Nautical Twilight 4:08 AM CEST 9:52 PM CEST
Astronomical Twilight 3:16 AM CEST 10:44 PM CEST
Moon No Moon Rise 12:24 PM CEST (6/29)
Length of Visible Light 16h 17m
Length of Day
15h 09m
Waning Gibbous, 58% of the Moon is Illuminated
Jun 29
Waning Gibbous
Jun 30
Last Quarter
Jul 8
New
Jul 16
First Quarter
Jul 22
Full

Hourly Weather History & Observations

Time (CEST) Temp. Dew Point Humidity Pressure Visibility Wind Dir Wind Speed Gust Speed Precip Events Conditions
1:55 AM 64.4 °F 60.8 °F 88% 29.98 in 6.2 mi West 8.1 mph - N/A   Partly Cloudy
2:00 AM 64 °F 61 °F 87% 29.99 in 9 mi West 8.1 mph - -   Scattered Clouds
2:55 AM 62.6 °F 62.6 °F 100% 29.98 in 6.2 mi West 9.2 mph - N/A   Mostly Cloudy
3:55 AM 64.4 °F 60.8 °F 88% 29.98 in 6.2 mi West 6.9 mph - N/A   Scattered Clouds
4:55 AM 62.6 °F 60.8 °F 94% 29.95 in 6.2 mi West 12.7 mph - N/A   Scattered Clouds
5:00 AM 63 °F 62 °F 93% 29.97 in 9 mi West 12.7 mph - -   Scattered Clouds
5:55 AM 60.8 °F 59.0 °F 94% 29.95 in 6.2 mi WNW 11.5 mph - N/A   Scattered Clouds
6:55 AM 62.6 °F 59.0 °F 88% 29.95 in 6.2 mi WNW 15.0 mph - N/A   Mostly Cloudy
7:55 AM 64.4 °F 59.0 °F 83% 29.95 in 6.2 mi WNW 16.1 mph - N/A   Scattered Clouds
8:00 AM 65 °F 58 °F 72% 29.96 in 9 mi WNW 16.1 mph - -   Mostly Cloudy
8:55 AM 66.2 °F 59.0 °F 78% 29.95 in 6.2 mi WNW 17.3 mph - N/A   Mostly Cloudy
9:16 AM 66.2 °F 59.0 °F 78% 29.95 in 6.2 mi WNW 15.0 mph - N/A Thunderstorm Thunderstorm
9:55 AM 66.2 °F 59.0 °F 78% 29.98 in 6.2 mi WNW 13.8 mph - N/A Thunderstorm Thunderstorm
10:55 AM 60.8 °F 57.2 °F 88% 29.98 in 6.2 mi ENE 3.5 mph - N/A   Mostly Cloudy
11:00 AM 62 °F 57 °F 79% 29.99 in 9 mi ENE 3.5 mph - - Thunderstorm Light Thunderstorm
11:02 AM 60.8 °F 57.2 °F 88% 29.98 in 6.2 mi ENE 3.5 mph - N/A Rain Heavy Rain
11:23 AM 60.8 °F 57.2 °F 88% 29.98 in 6.2 mi ENE 3.5 mph - N/A   Mostly Cloudy
11:55 AM 62.6 °F 60.8 °F 94% 29.98 in 6.2 mi East 3.5 mph - N/A   Scattered Clouds
12:55 PM 66.2 °F 59.0 °F 78% 29.98 in 6.2 mi SSE 2.3 mph - N/A   Scattered Clouds
1:55 PM 69.8 °F 53.6 °F 56% 29.95 in 6.2 mi WSW 4.6 mph - N/A   Scattered Clouds
2:00 PM 70 °F 54 °F 47% 29.97 in 9 mi WSW 4.6 mph - -   Partly Cloudy